[Iaude] MPEC C114: 2024 CD2 [a=2.04,e=0.44,i=37.3,H=20.5]
    mpec at cfa.harvard.edu 
    mpec at cfa.harvard.edu
       
    Sun Feb 11 04:08:15 EST 2024
    
    
  
M.P.E.C. 2024-C114                            Issued 2024 February 11, 09:06 UT
     The Minor Planet Electronic Circulars contain information on unusual
         minor planets, routine data on comets and natural satellites,
         and occasional editorial announcements.  They are published
    on behalf of Division F of the International Astronomical Union by the
          Minor Planet Center, Smithsonian Astrophysical Observatory,
                          Cambridge, MA 02138, U.S.A.
			  
             Prepared using the Tamkin Foundation Computer Network
                              MPC at CFA.HARVARD.EDU
            URL https://www.minorplanetcenter.net/    ISSN 1523-6714
                                    2024 CD2                                    
Observations:
     K24C02D* C2024 02 07.52312313 50 40.278+20 44 08.82         20.87wXEC114F52
     K24C02D  C2024 02 07.53678213 50 37.690+20 43 29.88         20.74wXEC114F52
     K24C02D  C2024 02 07.55045313 50 35.080+20 42 50.79         20.96wXEC114F52
     K24C02D  C2024 02 07.65919013 50 14.229+20 37 37.87         20.48GVEC114F52
     K24C02D  C2024 02 07.66001013 50 14.063+20 37 35.34         20.71GVEC114F52
     K24C02D 6C2024 02 08.18986113 48 35.864+20 11 48.83         20.8 GVEC114Z84
     K24C02D 2C2024 02 08.19207113 48 35.723+20 11 45.27         20.8 GVEC114J04
     K24C02D 6C2024 02 08.19394713 48 35.090+20 11 37.11         20.8 GVEC114Z84
     K24C02D 2C2024 02 08.19525813 48 35.142+20 11 35.49         20.4 GVEC114J04
     K24C02D 6C2024 02 08.19807413 48 34.259+20 11 24.56         20.9 GVEC114Z84
     K24C02D 2C2024 02 08.19844613 48 34.516+20 11 26.23         20.5 GVEC114J04
     K24C02D |C2024 02 11.28513013 38 19.240+17 34 45.60         20.6 GVEC114807
     K24C02D |C2024 02 11.28907013 38 18.380+17 34 33.10         20.6 GVEC114807
     K24C02D |C2024 02 11.29301613 38 17.520+17 34 20.70         20.5 GVEC114807
Observer details:
807 Cerro Tololo Observatory, La Serena.  Observers T. Linder, R. Holmes.
    0.61-m f/11 Ritchey-Chretien + CCD.
F52 Pan-STARRS 2, Haleakala.  Observers J. Herman, T. Lowe, P. Minguez, A.
    Schultz, I. Smith.  Measurers K. Chambers, T. de Boer, J. Fairlamb, H.
    Gao, M. Huber, C.-C. Lin, E. Magnier, Y. Ramanjooloo, R. Wainscoat, R.
    Weryk.  1.8-m Ritchey-Chretien + CCD.
J04 ESA Optical Ground Station, Tenerife.  Observers P. Ruiz, M. Micheli, F.
    Ocana, L. Conversi.  Measurers M. Micheli, R. Kresken, F. Ocana.
    1.0-m f/4.4 reflector + CCD.
Z84 Calar Alto-Schmidt.  Observers M. Micheli, R. Kresken, L. Conversi.
    Measurers R. Kresken, M. Micheli, F. Ocana.  0.8-m f/3 Schmidt + CCD.
Orbital elements:
2024 CD2                                                 Earth MOID = 0.3124 AU
Epoch 2023 Sept. 13.0 TT = JDT 2460200.5                MPC                     
M 326.19956              (2000.0)            P               Q                  
n   0.33933511     Peri.  119.20518     -0.31832279     -0.93802734             
a   2.0357144      Node   346.93275     +0.51131819     -0.04817879             
e   0.4413096      Incl.   37.30393     +0.79826331     -0.34319602             
P   2.90           H   20.53          G   0.15           U   9                  
Residuals in seconds of arc
240207 F52  0.0   0.1+    240208 Z84  0.1-  0.1+    240208 J04  0.2+  0.2-
240207 F52  0.1+  0.1+    240208 J04  0.4-  0.2+    240211 807  0.0   0.0
240207 F52  0.0   0.1+    240208 Z84  0.2+  0.3+    240211 807  0.0   0.0
240207 F52  0.0   0.1+    240208 J04  0.2+  0.3-    240211 807  0.0   0.0
240207 F52  0.1-  0.1-    240208 Z84  0.1-  0.1-
Ephemeris:
2024 CD2                 a,e,i = 2.04, 0.44, 37                  q = 1.1373
Date    TT    R. A. (2000) Decl.     Delta      r    Elong.  Phase     V
2024 01 12    14 36 40.8 +36 36 42   0.6060  1.1600    90.5    58.0    21.9
...
2024 01 27    14 18 18.7 +28 42 39   0.5099  1.2009   102.2    53.2    21.4
...
2024 02 04    14 00 39.8 +23 25 32   0.4593  1.2299   111.4    48.3    21.1
...
2024 02 10    13 42 43.7 +18 41 27   0.4255  1.2544   119.9    43.0    20.8
2024 02 11    13 39 18.6 +17 49 36   0.4205  1.2587   121.5    42.0    20.8
2024 02 12    13 35 46.0 +16 56 23   0.4156  1.2630   123.1    40.9    20.7
...
2024 02 18    13 11 57.2 +11 09 29   0.3919  1.2902   133.7    33.6    20.5
...
2024 02 26    12 34 28.7 +02 32 36   0.3786  1.3291   149.1    22.5    20.1
...
2024 03 12    11 20 53.8 -12 08 00   0.4258  1.4084   164.4    10.9    20.1
A. U. Tomatic                (C) Copyright 2024 MPC           M.P.E.C. 2024-C114
    
    
More information about the Iaude
mailing list